[[{"header":{"parameterUnit":"m.s-1","parameterCategory":1,"la1":30.2992,"la2":30.254,"lo1":-89.0895,"lo2":-89.0443,"dy":0.0025,"dx":0.0025,"nx":19,"ny":19,"refTime":"2026-05-11T09:00:00:Z","depth":0,"parameterNumber":2,"parameterNumberName":"U-component_of_WINDS"},"data":[0,0,0,1.2232,1.223,1.2144,1.2143,1.2053,1.2052,0,0,0,0,0,0,0,0,0,0,0,1.2271,1.2271,1.2232,1.223,1.2144,1.2143,1.2053,1.2052,0,0,0,0,0,0,0,0,0,0,0,1.2271,1.2271,1.2271,1.223,1.2144,1.2143,1.2053,1.2111,0,0,0,0,0,0,0,0,0,0,1.2191,1.2241,1.2271,1.2271,1.2229,1.2144,1.2143,1.2113,1.2107,1.2101,0,1.2101,0,1.2075,1.2048,1.2047,0,0,0,1.2219,1.2247,1.2211,1.2271,1.2229,1.2144,1.218,1.211,1.2103,1.2093,1.2099,1.2095,1.2074,1.2047,1.2047,1.2047,1.2048,0,0,1.2224,1.2263,1.2216,1.2207,1.2224,1.2183,1.2177,1.2105,1.2114,1.2099,1.2092,1.2072,1.2047,1.2046,1.2047,1.2047,0,0,0,1.2245,1.2267,1.2232,1.2211,1.2194,1.218,1.2174,1.2117,1.2102,1.2091,1.2071,1.2046,1.2045,1.2046,1.2047,1.2108,0,0,0,1.2247,1.2279,1.2235,1.2258,1.2196,1.2155,1.2188,1.2107,1.2098,1.2071,1.2046,1.2045,1.2045,1.2046,1.2105,1.2131,0,0,0,1.2272,1.2281,1.2274,1.226,1.2224,1.2155,1.2136,1.2104,1.2086,1.2047,1.2044,1.2045,1.2046,1.2103,1.2127,1.2141,0,0,0,1.2309,1.2331,1.2276,1.2291,1.2225,1.2195,1.2136,1.2111,1.2086,1.2046,1.2045,1.2047,1.2102,1.2124,1.2138,1.216,1.2173,0,0,1.2358,1.2339,1.2344,1.2292,1.2281,1.2205,1.2201,1.2141,1.2102,1.2067,1.2066,1.2106,1.2126,1.214,1.2232,1.2242,0,0,0,1.2373,1.2378,1.2366,1.2343,1.2298,1.2259,1.2195,1.2172,1.214,1.2093,1.2115,1.2125,1.2132,1.214,1.2149,1.2151,1.2052,1.2052,1.2052,1.2499,1.2446,1.2452,1.2388,1.2367,1.2298,1.2275,1.2232,1.2187,1.2192,1.2182,1.2244,1.2255,1.2261,1.2264,1.2189,1.2189,1.2189,1.219,1.2564,1.2562,1.2499,1.2482,1.2425,1.241,1.2343,1.2311,1.2287,1.2248,1.2251,1.2213,1.2274,1.2274,1.2194,1.2193,1.2192,1.2192,1.2192,1.264,1.263,1.2601,1.256,1.2534,1.2468,1.2446,1.2396,1.2348,1.2351,1.2333,1.2332,1.2323,1.2346,1.2346,1.2346,1.2347,1.2347,1.2347,1.273,1.2695,1.2685,1.2635,1.2612,1.2575,1.2504,1.2479,1.2438,1.2403,1.2402,1.2355,1.2291,1.2275,1.235,1.2349,1.2349,1.2349,1.2349,1.2816,1.2787,1.2771,1.2748,1.2683,1.2659,1.2594,1.2547,1.2518,1.2509,1.2459,1.2421,1.2397,1.2389,1.2376,1.2472,1.2472,1.2472,1.2472,1.2879,1.2861,1.2831,1.2796,1.2756,1.2695,1.2674,1.2618,1.2556,1.2534,1.2512,1.249,1.2485,1.2464,1.2455,1.2441,1.2552,1.2553,1.2553,1.2927,1.2903,1.2897,1.2836,1.2781,1.2734,1.2712,1.2673,1.2596,1.2555,1.2515,1.2512,1.2476,1.2467,1.2426,1.2413,1.2388,0,0]},{"header":{"parameterUnit":"m.s-1","parameterCategory":1,"la1":30.2992,"la2":30.254,"lo1":-89.0895,"lo2":-89.0443,"dy":0.0025,"dx":0.0025,"nx":19,"ny":19,"refTime":"2026-05-11T09:00:00:Z","depth":0,"parameterNumber":3,"parameterNumberName":"V-component_of_WINDS"},"data":[0,0,0,2.8603,2.8604,2.8641,2.8641,2.8694,2.8695,0,0,0,0,0,0,0,0,0,0,0,2.8597,2.8598,2.8603,2.8604,2.8641,2.8641,2.8694,2.8695,0,0,0,0,0,0,0,0,0,0,0,2.8597,2.8597,2.8598,2.8605,2.8641,2.8641,2.8694,2.8664,0,0,0,0,0,0,0,0,0,0,2.8627,2.8626,2.8597,2.8598,2.8605,2.8641,2.8642,2.8662,2.8666,2.868,0,2.8696,0,2.8696,2.8699,2.8699,0,0,0,2.8601,2.8623,2.8629,2.8598,2.8605,2.8641,2.8624,2.8664,2.8668,2.8685,2.8696,2.8698,2.8697,2.8699,2.8699,2.8798,2.8799,0,0,2.8599,2.8606,2.8626,2.8632,2.8628,2.8622,2.8625,2.8666,2.8679,2.8696,2.8699,2.8698,2.87,2.87,2.8798,2.8798,0,0,0,2.8595,2.8605,2.8609,2.863,2.8636,2.8624,2.8626,2.8677,2.8678,2.87,2.8699,2.87,2.8701,2.8797,2.8798,2.8837,0,0,0,2.8594,2.8603,2.8609,2.8614,2.8636,2.8657,2.8636,2.8675,2.8679,2.8698,2.87,2.8701,2.8796,2.8798,2.8834,2.8854,0,0,0,2.8593,2.8602,2.861,2.8614,2.863,2.8656,2.866,2.8676,2.8679,2.8699,2.8701,2.8796,2.8797,2.8832,2.885,2.8881,0,0,0,2.8594,2.8643,2.861,2.8665,2.863,2.8681,2.8659,2.8696,2.8718,2.87,2.8796,2.8798,2.8831,2.8847,2.8879,2.8909,2.8923,0,0,2.866,2.8651,2.8683,2.8655,2.8713,2.8674,2.8738,2.8751,2.8745,2.8781,2.8783,2.8835,2.8849,2.8881,2.8996,2.9007,0,0,0,2.8706,2.8729,2.8743,2.8765,2.8776,2.8787,2.8789,2.8794,2.8824,2.8766,2.8855,2.8863,2.8881,2.8895,2.8905,2.8919,2.8805,2.8805,2.8805,2.881,2.8801,2.8852,2.8848,2.8869,2.8871,2.8887,2.8893,2.8878,2.8899,2.891,2.8981,2.8997,2.9004,2.902,2.8925,2.8925,2.8926,2.8926,2.8905,2.8936,2.8915,2.8957,2.8947,2.8982,2.8985,2.8973,2.9003,2.8972,2.8988,2.8954,2.9016,2.9029,2.8928,2.8928,2.8928,2.8927,2.8927,2.8971,2.8984,2.899,2.902,2.9044,2.9038,2.9068,2.9058,2.9049,2.9064,2.9073,2.9073,2.907,2.9069,2.907,2.907,2.907,2.907,2.907,2.9038,2.9043,2.907,2.9087,2.9099,2.9114,2.9116,2.9128,2.9138,2.9128,2.9128,2.911,2.9025,2.9003,2.9074,2.9073,2.9073,2.9073,2.9072,2.9136,2.9112,2.9155,2.9167,2.9186,2.921,2.9197,2.9221,2.9229,2.9244,2.9223,2.9162,2.9152,2.9145,2.9127,2.9226,2.9226,2.9226,2.9226,2.9191,2.9186,2.9227,2.9247,2.9266,2.9259,2.9306,2.9308,2.9306,2.9311,2.9295,2.927,2.9263,2.9257,2.9248,2.9231,2.9354,2.9354,2.9354,2.9251,2.9247,2.9289,2.9289,2.9302,2.9314,2.9357,2.9381,2.9374,2.9359,2.9314,2.9308,2.9268,2.9256,2.9239,2.9224,2.9193,0,0]}]]